Location: Chena
(64.8152°N, 147.9227°W)
Time: 00:25:50
(UTC+00:00)

Vanguard 2 - Pass Details

Date: 01 March 2021
Orbit: 552 x 2938 km, 32.9° (Epoch: 10 April)

Event Time Altitude Azimuth Distance (km) Brightness Sun altitude
Exits shadow 13:37:53 - 192° (SSW) 6,164 11.8 -21.5°
Reaches altitude 10° 13:45:31 10° 168° (SSE) 5,601 11.7 -20.8°
Maximum altitude 13:50:43 12° 150° (SSE) 5,545 11.9 -20.3°
Drops below altitude 10° 13:56:03 10° 133° (SE) 5,770 12.2 -19.8°
Sets 14:04:54 0° 109° (ESE) 6,650 13.0 -19.0°
